OAL170 LGAV-LGMT

Flight info

Callsign OAL170
Flight time 0h 58m
Altitude 17000
Route KRO N604 ATSOV
Aircraft TBM8/L-SDFGRWY/S

Departure

Time 2026-04-30 20:30
Airport Athens Eleftherios Venizelos International Airport (LGAV)

Arrival

Time 2026-04-30 21:28
Airport Mytilene International Airport (LGMT)
Time Latitude Longitude Altitude Speed Heading
2026-04-30 20:17 37.92612 23.94014 296 ft 0 kts 217°
2026-04-30 20:26 37.92623 23.94025 298 ft 7 kts 217°
2026-04-30 20:26 37.92639 23.94040 296 ft 0 kts 200°
2026-04-30 20:27 37.92646 23.94084 296 ft 7 kts 66°
2026-04-30 20:27 37.92537 23.94329 302 ft 13 kts 125°
2026-04-30 20:28 37.92506 23.94436 304 ft 19 kts 49°
2026-04-30 20:28 37.92692 23.94632 301 ft 41 kts 38°
2026-04-30 20:29 37.93739 23.95557 538 ft 121 kts 31°
2026-04-30 20:30 37.96524 23.97644 1122 ft 170 kts 16°
2026-04-30 20:30 37.99921 23.99007 1888 ft 174 kts 35°
2026-04-30 20:31 38.02873 24.01771 2634 ft 178 kts 35°
2026-04-30 20:32 38.05964 24.04622 3366 ft 193 kts 34°
2026-04-30 20:32 38.08144 24.06652 3842 ft 195 kts 34°
2026-04-30 20:33 38.09167 24.07777 4078 ft 197 kts 50°
2026-04-30 20:33 38.09873 24.10864 4525 ft 202 kts 95°
2026-04-30 20:33 38.09817 24.11352 4596 ft 202 kts 102°
2026-04-30 20:34 38.09085 24.14128 5003 ft 203 kts 110°
2026-04-30 20:34 38.08404 24.16649 5366 ft 205 kts 110°
2026-04-30 20:35 38.07936 24.18366 5616 ft 206 kts 110°
2026-04-30 20:35 38.07467 24.20088 5867 ft 206 kts 110°
2026-04-30 20:35 38.06532 24.23524 6371 ft 207 kts 110°
2026-04-30 20:36 38.06060 24.25255 6611 ft 208 kts 110°
2026-04-30 20:36 38.05593 24.26966 6848 ft 209 kts 110°
2026-04-30 20:36 38.04638 24.30465 7330 ft 210 kts 110°
2026-04-30 20:37 38.04157 24.32222 7577 ft 211 kts 110°
2026-04-30 20:37 38.03676 24.33982 7826 ft 212 kts 110°
2026-04-30 20:37 38.03191 24.35753 8078 ft 213 kts 110°
2026-04-30 20:37 38.02704 24.37538 8321 ft 214 kts 110°
2026-04-30 20:38 38.02215 24.39325 8569 ft 215 kts 110°
2026-04-30 20:38 38.01724 24.41115 8827 ft 216 kts 110°
2026-04-30 20:38 38.01230 24.42917 9082 ft 217 kts 110°
2026-04-30 20:39 38.00234 24.46546 9599 ft 219 kts 110°
2026-04-30 20:39 37.99983 24.48449 9867 ft 221 kts 87°
2026-04-30 20:39 38.00283 24.50349 10116 ft 220 kts 66°
2026-04-30 20:40 38.02033 24.53422 10595 ft 216 kts 46°
2026-04-30 20:40 38.02435 24.54037 10698 ft 216 kts 46°
2026-04-30 20:41 38.03038 24.54963 10849 ft 217 kts 46°
2026-04-30 20:41 38.04007 24.56430 11096 ft 217 kts 46°
2026-04-30 20:41 38.04097 24.56567 11129 ft 217 kts 46°
2026-04-30 20:43 38.04462 24.57123 11208 ft 217 kts 46°
2026-04-30 20:43 38.05394 24.58542 11456 ft 201 kts 45°
2026-04-30 20:43 38.06307 24.59914 11700 ft 208 kts 45°
2026-04-30 20:44 38.08243 24.62865 12201 ft 225 kts 46°
2026-04-30 20:44 38.09257 24.64413 12463 ft 230 kts 46°
2026-04-30 20:44 38.11340 24.67585 12989 ft 237 kts 45°
2026-04-30 20:45 38.13459 24.70815 13510 ft 242 kts 46°
2026-04-30 20:45 38.14542 24.72468 13780 ft 244 kts 46°
2026-04-30 20:45 38.15632 24.74133 14021 ft 246 kts 46°
2026-04-30 20:46 38.18936 24.79180 14734 ft 249 kts 46°
2026-04-30 20:46 38.20048 24.80880 14975 ft 250 kts 46°
2026-04-30 20:47 38.22281 24.84298 15463 ft 252 kts 46°
2026-04-30 20:47 38.23402 24.86016 15710 ft 253 kts 46°
2026-04-30 20:48 38.25653 24.89469 16279 ft 252 kts 46°
2026-04-30 20:48 38.26765 24.91172 16633 ft 249 kts 46°
2026-04-30 20:48 38.27865 24.92860 16974 ft 248 kts 45°
2026-04-30 20:48 38.28993 24.94588 17026 ft 260 kts 46°
2026-04-30 20:49 38.30168 24.96400 17027 ft 270 kts 46°
2026-04-30 20:49 38.31382 24.98271 17035 ft 277 kts 46°
2026-04-30 20:49 38.32610 25.00159 17032 ft 283 kts 46°
2026-04-30 20:50 38.35166 25.04095 17034 ft 289 kts 46°
2026-04-30 20:50 38.36433 25.06050 17037 ft 291 kts 47°
2026-04-30 20:50 38.37725 25.08042 17036 ft 292 kts 47°
2026-04-30 20:50 38.39024 25.10047 17036 ft 293 kts 47°
2026-04-30 20:51 38.40326 25.12059 17002 ft 295 kts 47°
2026-04-30 20:51 38.42935 25.16089 17003 ft 295 kts 47°
2026-04-30 20:51 38.43317 25.16680 17003 ft 295 kts 47°
2026-04-30 20:52 38.44972 25.19233 17000 ft 295 kts 47°
2026-04-30 20:53 38.46278 25.21256 17001 ft 295 kts 47°
2026-04-30 20:53 38.47141 25.22596 17003 ft 295 kts 47°
2026-04-30 20:53 38.48446 25.24619 17003 ft 295 kts 47°
2026-04-30 20:54 38.51054 25.28664 16997 ft 295 kts 47°
2026-04-30 20:54 38.52321 25.30660 16795 ft 276 kts 49°
2026-04-30 20:54 38.53454 25.32477 16526 ft 250 kts 46°
2026-04-30 20:55 38.55578 25.35692 15986 ft 228 kts 46°
2026-04-30 20:55 38.56556 25.37215 15715 ft 214 kts 46°
2026-04-30 20:55 38.57439 25.38617 15441 ft 193 kts 46°
2026-04-30 20:56 38.59060 25.41132 14914 ft 176 kts 45°
2026-04-30 20:56 38.59830 25.42327 14654 ft 172 kts 45°
2026-04-30 20:56 38.61318 25.44646 14157 ft 165 kts 45°
2026-04-30 20:57 38.62043 25.45775 13910 ft 163 kts 45°
2026-04-30 20:57 38.62756 25.46888 13657 ft 161 kts 45°
2026-04-30 20:57 38.63464 25.47991 13384 ft 160 kts 45°
2026-04-30 20:58 38.64864 25.50179 12852 ft 158 kts 46°
2026-04-30 20:58 38.65556 25.51259 12593 ft 156 kts 46°
2026-04-30 20:58 38.66274 25.52352 12357 ft 170 kts 45°
2026-04-30 20:58 38.67037 25.53550 12138 ft 176 kts 47°
2026-04-30 20:59 38.68568 25.55965 11860 ft 174 kts 47°
2026-04-30 20:59 38.69332 25.57161 11706 ft 174 kts 47°
2026-04-30 21:00 38.70860 25.59554 11416 ft 173 kts 47°
2026-04-30 21:00 38.72381 25.61938 11118 ft 172 kts 47°
2026-04-30 21:01 38.73900 25.64321 10824 ft 173 kts 48°
2026-04-30 21:01 38.74660 25.65515 10680 ft 173 kts 47°
2026-04-30 21:01 38.76176 25.67896 10392 ft 172 kts 48°
2026-04-30 21:02 38.76932 25.69083 10247 ft 172 kts 48°
2026-04-30 21:02 38.77685 25.70267 10101 ft 171 kts 48°
2026-04-30 21:02 38.78436 25.71448 9957 ft 171 kts 49°
2026-04-30 21:02 38.79167 25.72610 9797 ft 163 kts 49°
2026-04-30 21:03 38.79868 25.73714 9631 ft 157 kts 48°
2026-04-30 21:03 38.80551 25.74782 9461 ft 154 kts 49°
2026-04-30 21:03 38.81223 25.75836 9276 ft 152 kts 49°
2026-04-30 21:03 38.81888 25.76885 9122 ft 151 kts 49°
2026-04-30 21:04 38.82551 25.77926 8964 ft 150 kts 49°
2026-04-30 21:04 38.83207 25.78964 8808 ft 149 kts 49°
2026-04-30 21:04 38.84509 25.81017 8503 ft 147 kts 49°
2026-04-30 21:05 38.85126 25.81986 8492 ft 138 kts 49°
2026-04-30 21:05 38.85721 25.82917 8485 ft 132 kts 49°
2026-04-30 21:05 38.86289 25.83814 8483 ft 128 kts 49°
2026-04-30 21:05 38.86860 25.84715 8366 ft 134 kts 49°
2026-04-30 21:06 38.87454 25.85666 8225 ft 138 kts 49°
2026-04-30 21:06 38.88064 25.86632 8082 ft 140 kts 49°
2026-04-30 21:06 38.88683 25.87612 7941 ft 142 kts 49°
2026-04-30 21:06 38.89305 25.88596 7790 ft 142 kts 50°
2026-04-30 21:07 38.89929 25.89579 7655 ft 142 kts 50°
2026-04-30 21:07 38.90549 25.90561 7505 ft 141 kts 49°
2026-04-30 21:07 38.91134 25.91485 7367 ft 141 kts 50°
2026-04-30 21:08 38.91252 25.91673 7339 ft 141 kts 50°
2026-04-30 21:08 38.91519 25.92098 7271 ft 140 kts 50°
2026-04-30 21:09 38.92095 25.93012 7134 ft 140 kts 50°
2026-04-30 21:09 38.92691 25.93955 7091 ft 132 kts 49°
2026-04-30 21:09 38.93274 25.94865 6988 ft 133 kts 50°
2026-04-30 21:10 38.93856 25.95795 6865 ft 134 kts 50°
2026-04-30 21:10 38.94442 25.96725 6741 ft 134 kts 50°
2026-04-30 21:10 38.95027 25.97652 6629 ft 133 kts 50°
2026-04-30 21:10 38.95601 25.98563 6508 ft 133 kts 50°
2026-04-30 21:11 38.96180 25.99481 6385 ft 132 kts 50°
2026-04-30 21:11 38.96723 26.00427 6244 ft 132 kts 68°
2026-04-30 21:11 38.96776 26.01567 6116 ft 128 kts 97°
2026-04-30 21:11 38.96750 26.02711 5992 ft 128 kts 95°
2026-04-30 21:12 38.96730 26.03853 5869 ft 128 kts 91°
2026-04-30 21:12 38.96782 26.04996 5742 ft 128 kts 89°
2026-04-30 21:12 38.96838 26.06186 5634 ft 141 kts 88°
2026-04-30 21:12 38.96895 26.07509 5541 ft 152 kts 89°
2026-04-30 21:13 38.96940 26.08881 5437 ft 155 kts 89°
2026-04-30 21:13 38.96979 26.10270 5329 ft 156 kts 89°
2026-04-30 21:13 38.97020 26.11670 5214 ft 157 kts 89°
2026-04-30 21:13 38.97059 26.13072 5096 ft 157 kts 89°
2026-04-30 21:14 38.97098 26.14474 4972 ft 157 kts 89°
2026-04-30 21:14 38.97135 26.15871 4849 ft 156 kts 89°
2026-04-30 21:14 38.97152 26.16490 4797 ft 156 kts 89°
2026-04-30 21:16 38.97164 26.16934 4751 ft 156 kts 89°
2026-04-30 21:16 38.97194 26.18340 4627 ft 155 kts 89°
2026-04-30 21:16 38.97193 26.19724 4497 ft 155 kts 94°
2026-04-30 21:17 38.97189 26.19818 4487 ft 155 kts 94°
2026-04-30 21:17 38.97173 26.20179 4452 ft 154 kts 94°
2026-04-30 21:17 38.97112 26.21554 4327 ft 154 kts 94°
2026-04-30 21:17 38.97049 26.22920 4207 ft 153 kts 94°
2026-04-30 21:18 38.96988 26.24250 4201 ft 146 kts 94°
2026-04-30 21:18 38.96927 26.25539 4193 ft 143 kts 94°
2026-04-30 21:18 38.96860 26.26808 4190 ft 142 kts 97°
2026-04-30 21:18 38.96739 26.28057 4193 ft 140 kts 98°
2026-04-30 21:19 38.96616 26.29301 4192 ft 140 kts 98°
2026-04-30 21:19 38.96492 26.30540 4190 ft 140 kts 98°
2026-04-30 21:19 38.96366 26.31775 4195 ft 139 kts 98°
2026-04-30 21:19 38.96240 26.33075 4206 ft 163 kts 96°
2026-04-30 21:20 38.96088 26.34675 4216 ft 196 kts 98°
2026-04-30 21:20 38.95894 26.36501 4221 ft 215 kts 98°
2026-04-30 21:20 38.95684 26.38457 4212 ft 226 kts 98°
2026-04-30 21:20 38.95518 26.40491 4211 ft 231 kts 91°
2026-04-30 21:21 38.95592 26.42565 4210 ft 234 kts 86°
2026-04-30 21:21 38.95678 26.44661 4211 ft 235 kts 89°
2026-04-30 21:21 38.95636 26.48848 4209 ft 230 kts 91°
2026-04-30 21:22 38.95615 26.50873 4207 ft 225 kts 90°
2026-04-30 21:22 38.95699 26.56875 3935 ft 227 kts 89°
2026-04-30 21:23 38.95727 26.58878 3785 ft 227 kts 89°
2026-04-30 21:23 38.95787 26.60902 3639 ft 226 kts 87°
2026-04-30 21:23 38.96799 26.64156 3273 ft 160 kts 37°
2026-04-30 21:24 38.97644 26.64967 2722 ft 151 kts 31°
2026-04-30 21:24 38.98537 26.65386 2493 ft 120 kts
2026-04-30 21:24 38.99230 26.65182 2147 ft 99 kts 329°
2026-04-30 21:24 38.99780 26.64713 1796 ft 91 kts 320°
2026-04-30 21:25 39.00800 26.63781 1240 ft 87 kts 325°
2026-04-30 21:25 39.01321 26.63345 908 ft 97 kts 325°
2026-04-30 21:25 39.01882 26.62893 720 ft 92 kts 331°
2026-04-30 21:26 39.02904 26.62122 573 ft 88 kts 326°
2026-04-30 21:26 39.03411 26.61720 484 ft 83 kts 321°
2026-04-30 21:27 39.04374 26.60991 244 ft 80 kts 325°
2026-04-30 21:27 39.04843 26.60617 101 ft 78 kts 325°
2026-04-30 21:27 39.05284 26.60252 13 ft 72 kts 326°
2026-04-30 21:28 39.05785 26.59854 3 ft 9 kts 329°
2026-04-30 21:28 39.05900 26.59786 3 ft 16 kts 356°
2026-04-30 21:28 39.05983 26.59798 3 ft 22 kts 10°
2026-04-30 21:29 39.06100 26.59778 3 ft 9 kts 340°
2026-04-30 21:29 39.06189 26.59800 3 ft 0 kts 61°